HULIANWANG DIGUI-86

导读

HULIANWANG DIGUI-86是中国于2025年9月27日发射的低轨卫星互联网卫星,属于中国低轨卫星星座组网建设的组成部分。低轨卫星互联网可消除地面通信盲区,提供低时延高速率的宽带接入,支撑手机直连卫星等天地一体化服务,助力未来6G空天通信网络构建,推动卫星通信产业发展,完善中国全球覆盖的通信基础设施布局。

Basic Information
目录编号:
65821
目录名称:
HULIANWANG DIGUI-86
国际标识:
2025-220E
轨道中心:
EARTH
卫星名称:
HULIANWANG DIGUI-86
卫星全名:
HULIANWANG DIGUI-86
卫星状态:
在轨 (已飞行353 天)
发射日期:
2025-09-27 UTC
国别 :
中国 (CN)
星等 :
--
This satellite is enrolled in the Space Conjunction Data Service (SCDS) and the current flight risk assessment level is: No High Risk
Orbit Information
数据来源 国际轨道数据 AOE轨道数据
星历时间 2026-09-15T21:34:17+0800
9小时前
查看轨道信息
2026-09-16T03:00:00+0800
3小时前
查看轨道信息
半长轴 7546.05km 7546.049km
偏心率 0.000143 0.0001186
轨道倾角 86.503° 86.504°
近地点辐角 107.953° 111.217°
升交点赤经 13.318° 13.243°
平近点角 252.176° 246.741°
近地点 1166.833km 1167.017km
远地点 1168.993km 1168.807km
周期 108.727分钟 108.727分钟
每日圈数 13.244126 13.244127
Detailed Information
使用方式:
暂无
2D Orbit Map
3D Orbit Map
Orbit Altitude Analysis Chart
Orbit Inclination Analysis Chart
Orbit Comprehensive Analysis Chart
View Comprehensive Chart
Miss Distance Evolution Trend with All Objects Subscribe to Flight Safety Assessment
Collision Probability Evolution Trend with All Objects Subscribe to Flight Safety Assessment